[[{"header":{"parameterUnit":"m.s-1","parameterCategory":2,"la1":30.2991,"la2":30.254,"lo1":-89.0895,"lo2":-89.0444,"dx":0.0017,"dy":0.0017,"nx":28,"ny":28,"refTime":"2023-01-27T09:00:00:Z","depth":"0","parameterNumber":2,"parameterNumberName":"U-component_of_CURRENTS"},"data":[0,0,0,0,0,0,0,0,0,0,0,0,0,0,0,0,0,0,0,0,0,0,0,0,0,0,0,0,0,0,0,0,0,0,0,0,0,0,0,0,0,0,0,0,0,0,0,0,0,0,0,0,0,0,0,0,0,0,0.1793,0.1792,0,0.165,0.1648,0.1647,0.1589,0.1589,0.1589,0.159,0.162,0.162,0.1621,0,0,0,0,0,0,0,0,0,0,0,0,0,0.1917,0.1915,0.1793,0.1792,0.179,0.165,0.1648,0.1646,0.1589,0.1589,0.159,0.159,0.162,0.162,0.1621,0,0,0,0,0,0,0,0,0,0,0,0,0,0.1828,0.1915,0.1794,0.1744,0.1738,0.1651,0.1648,0.1646,0.1589,0.1589,0.159,0.159,0.1619,0.162,0.1621,0.1618,0,0,0.1623,0.1624,0,0,0,0,0,0,0,0,0.1833,0.1824,0.1753,0.1747,0.174,0.1637,0.1702,0.1645,0.1589,0.1646,0.159,0.159,0.1641,0.164,0.161,0.1619,0.162,0.1623,0.1624,0.1624,0.1625,0,0,0,0,0,0,0,0.184,0.1829,0.1737,0.1751,0.1743,0.1694,0.1683,0.169,0.1647,0.1641,0.1636,0.1619,0.1639,0.161,0.1611,0.1621,0.1623,0.1624,0.1625,0.1625,0.17,0.1701,0,0,0,0,0,0,0.1861,0.1835,0.1742,0.1733,0.1788,0.1692,0.1679,0.167,0.1643,0.1637,0.1619,0.1617,0.1608,0.161,0.1613,0.1656,0.1624,0.1625,0.1626,0.1698,0.17,0.1702,0,0,0,0,0,0,0.1864,0.1854,0.1748,0.178,0.1763,0.169,0.168,0.1667,0.1644,0.1624,0.1622,0.161,0.1608,0.1611,0.1624,0.1656,0.1625,0.1626,0.1696,0.1699,0.1701,0.1714,0,0,0,0,0,0,0.1868,0.1856,0.1854,0.1782,0.1762,0.1703,0.1679,0.1664,0.1632,0.1628,0.1616,0.1617,0.1609,0.1622,0.1624,0.1657,0.1627,0.1694,0.1697,0.17,0.1712,0.1717,0.1721,0,0,0,0,0,0.1873,0.1859,0.1855,0.1843,0.1763,0.1703,0.1689,0.1638,0.1632,0.162,0.1614,0.1618,0.1643,0.1623,0.1625,0.1659,0.1693,0.1697,0.17,0.171,0.1716,0.1721,0,0,0,0,0,0,0.1886,0.185,0.1844,0.1814,0.1771,0.1693,0.167,0.1645,0.1624,0.163,0.162,0.1622,0.1654,0.1654,0.1632,0.1692,0.1676,0.168,0.1684,0.1689,0.1693,0.1729,0.1627,0,0,0,0,0,0.1897,0.189,0.184,0.1814,0.1801,0.1743,0.1713,0.1684,0.1653,0.1642,0.1621,0.1632,0.1666,0.1674,0.1688,0.1706,0.1738,0.1737,0.1742,0.1745,0.1779,0.1838,0.1851,0.1713,0.1713,0.1713,0,0,0.189,0.187,0.1863,0.1819,0.1784,0.176,0.1726,0.1686,0.1676,0.1655,0.1633,0.1644,0.1677,0.17,0.1716,0.1704,0.1799,0.175,0.1752,0.1784,0.1843,0.1856,0.1868,0.1715,0.1715,0.1714,0,0,0.1876,0.1865,0.1862,0.1837,0.1796,0.1766,0.1764,0.1696,0.1684,0.1668,0.1672,0.1707,0.1702,0.1743,0.177,0.1815,0.1824,0.1811,0.1855,0.1911,0.1923,0.1934,0.1977,0.1991,0.1807,0.1807,0.1807,0,0.1875,0.1861,0.1844,0.1833,0.1815,0.1779,0.1767,0.1749,0.1688,0.1703,0.1673,0.172,0.1741,0.1825,0.1839,0.183,0.1846,0.1825,0.1917,0.1928,0.1939,0.1981,0.1997,0.1808,0.1808,0.1808,0.1808,0,0.1859,0.185,0.184,0.1833,0.1815,0.1792,0.1777,0.1766,0.1751,0.1737,0.1788,0.1799,0.1838,0.1852,0.1861,0.1956,0.1935,0.1916,0.19,0.1954,0.1994,0.201,0.181,0.181,0.1809,0.1809,0,0,0.1857,0.1839,0.1838,0.1833,0.1818,0.1792,0.1817,0.1825,0.1843,0.1824,0.1858,0.193,0.1931,0.1966,0.1976,0.2027,0.2115,0.2001,0.2003,0.2039,0.2223,0.2154,0.2165,0.2091,0.2094,0.2097,0.2213,0,0.1852,0.1834,0.1836,0.182,0.1808,0.1815,0.1829,0.1844,0.1855,0.187,0.1939,0.1965,0.1976,0.1986,0.2051,0.2098,0.2162,0.2086,0.2171,0.2175,0.2103,0.2183,0.2178,0.2276,0.2229,0.2232,0.2234,0,0.1843,0.1832,0.182,0.1817,0.1816,0.1807,0.1842,0.185,0.191,0.1924,0.1989,0.2008,0.2114,0.2087,0.2236,0.2174,0.2221,0.2251,0.2255,0.2207,0.2138,0.2219,0.2308,0.2208,0.226,0.2258,0.2256,0,0.1835,0.1824,0.1815,0.1809,0.1802,0.1816,0.1821,0.1867,0.1886,0.1956,0.1972,0.2083,0.2119,0.2217,0.2282,0.2263,0.2412,0.2392,0.2386,0.238,0.2408,0.2399,0.2414,0.2518,0.2518,0.2518,0.2517,0,0.1825,0.1812,0.1804,0.1789,0.1783,0.1795,0.181,0.1837,0.1887,0.1908,0.1989,0.2022,0.2149,0.2228,0.2306,0.2392,0.2441,0.2432,0.2421,0.2408,0.2398,0.2335,0.2243,0.2522,0.2521,0.252,0.2519,0,0.1799,0.1798,0.1776,0.1772,0.1769,0.1761,0.1776,0.1784,0.1842,0.1875,0.1896,0.1997,0.2103,0.2213,0.2358,0.2402,0.2419,0.2511,0.2474,0.2456,0.2349,0.2257,0.2154,0.2126,0.2557,0.2556,0.2555,0,0.1781,0.1765,0.1749,0.1728,0.1717,0.1713,0.1705,0.1753,0.1764,0.1848,0.1855,0.1965,0.2033,0.2219,0.234,0.2482,0.2376,0.2517,0.25,0.237,0.2262,0.2093,0.2066,0.2549,0.2548,0.2548,0.2547,0,0.1732,0.1726,0.17,0.1664,0.1642,0.1633,0.1629,0.1636,0.1693,0.1733,0.1783,0.1849,0.2033,0.2165,0.2325,0.2422,0.2365,0.2506,0.241,0.2298,0.2083,0.204,0.2422,0.2542,0.2543,0.2543,0.2544,0.2544,0.1682,0.165,0.1613,0.1572,0.1554,0.1534,0.1517,0.1534,0.1554,0.1593,0.1684,0.176,0.197,0.2213,0.2296,0.2389,0.2307,0.2372,0.2289,0.2143,0.2055,0.24,0.2463,0.2463,0.2463,0.2463,0.2463,0,0.1589,0.1555,0.1519,0.1465,0.1424,0.1448,0.1442,0.1427,0.1428,0.1497,0.1546,0.1699,0.1884,0.2072,0.2251,0.2193,0.2156,0.2115,0.1927,0.1934,0.2317,0.2258,0.223,0.223,0.223,0.223,0.223,0.223,0.1529,0.1454,0.1433,0.1339,0.1313,0.1259,0.125,0.1254,0.1294,0.1328,0.138,0.1452,0.1593,0.1744,0.1848,0.1908,0.1765,0.1646,0.1594,0.1899,0.1918,0.1936,0.1862,0.1751,0.1751,0.1235,0.1231,0.1227]},{"header":{"parameterUnit":"m.s-1","parameterCategory":2,"la1":30.2991,"la2":30.254,"lo1":-89.0895,"lo2":-89.0444,"dx":0.0017,"dy":0.0017,"nx":28,"ny":28,"refTime":"2023-01-27T09:00:00:Z","depth":"0","parameterNumber":3,"parameterNumberName":"V-component_of_CURRENTS"},"data":[0,0,0,0,0,0,0,0,0,0,0,0,0,0,0,0,0,0,0,0,0,0,0,0,0,0,0,0,0,0,0,0,0,0,0,0,0,0,0,0,0,0,0,0,0,0,0,0,0,0,0,0,0,0,0,0,0,0,0.0579,0.0578,0,0.0502,0.0501,0.05,0.0475,0.0475,0.0475,0.0475,0.0457,0.0457,0.0456,0,0,0,0,0,0,0,0,0,0,0,0,0,0.0686,0.0685,0.0579,0.0578,0.0576,0.0502,0.0501,0.05,0.0475,0.0475,0.0475,0.0475,0.0457,0.0457,0.0456,0,0,0,0,0,0,0,0,0,0,0,0,0,0.0631,0.0685,0.0579,0.0552,0.0548,0.0502,0.0501,0.05,0.0475,0.0475,0.0475,0.0475,0.0458,0.0457,0.0456,0.0452,0,0,0.0454,0.0454,0,0,0,0,0,0,0,0,0.0634,0.0628,0.0557,0.0554,0.055,0.0495,0.0532,0.0486,0.0475,0.0507,0.0475,0.0475,0.0473,0.0471,0.0461,0.0451,0.045,0.0454,0.0454,0.0453,0.0453,0,0,0,0,0,0,0,0.0638,0.0631,0.0552,0.0556,0.0551,0.0537,0.053,0.0523,0.0495,0.0504,0.0501,0.0487,0.0472,0.0462,0.046,0.045,0.0454,0.0453,0.0453,0.0453,0.0519,0.0521,0,0,0,0,0,0,0.0641,0.0634,0.0554,0.0549,0.0589,0.0535,0.0527,0.0515,0.0494,0.0489,0.0487,0.0486,0.0463,0.0461,0.046,0.0522,0.0453,0.0453,0.0452,0.0517,0.0519,0.0521,0,0,0,0,0,0,0.0644,0.0635,0.0558,0.0587,0.0576,0.0533,0.052,0.0514,0.0503,0.0479,0.0476,0.0482,0.0463,0.0461,0.0475,0.0518,0.0452,0.0452,0.0514,0.0517,0.052,0.0602,0,0,0,0,0,0,0.0647,0.0636,0.0637,0.0587,0.0574,0.0535,0.052,0.0512,0.0492,0.049,0.0474,0.0472,0.0463,0.0476,0.0474,0.0516,0.0451,0.0511,0.0515,0.0519,0.0597,0.0608,0.0618,0,0,0,0,0,0.0651,0.0649,0.0637,0.0628,0.0574,0.0535,0.0528,0.05,0.0492,0.049,0.0493,0.0472,0.0502,0.0477,0.0474,0.0517,0.0509,0.0514,0.0519,0.0592,0.0606,0.0617,0,0,0,0,0,0,0.069,0.0644,0.0631,0.0613,0.0579,0.053,0.0525,0.0501,0.0499,0.0505,0.0487,0.0487,0.0523,0.0506,0.0479,0.0551,0.0507,0.0512,0.0564,0.0576,0.0586,0.06,0.0451,0,0,0,0,0,0.0699,0.069,0.064,0.0627,0.0613,0.0571,0.0553,0.0532,0.0515,0.0512,0.0498,0.0507,0.054,0.0545,0.0557,0.058,0.0555,0.0611,0.0622,0.063,0.0642,0.0633,0.0643,0.0538,0.0538,0.0537,0,0,0.0707,0.0683,0.0676,0.0635,0.0611,0.06,0.0562,0.0538,0.0548,0.0513,0.053,0.0537,0.0556,0.0598,0.0613,0.0587,0.0649,0.0637,0.0644,0.0651,0.0639,0.0649,0.0658,0.0541,0.054,0.054,0,0,0.0723,0.0702,0.0703,0.0681,0.0644,0.0622,0.0616,0.0569,0.0574,0.0581,0.0586,0.0622,0.0625,0.0667,0.0689,0.0761,0.0707,0.076,0.0818,0.081,0.0818,0.0824,0.0807,0.0811,0.0762,0.0762,0.0762,0,0.0734,0.0729,0.0696,0.0693,0.0682,0.0636,0.0638,0.0637,0.0604,0.0631,0.06,0.0663,0.0672,0.0764,0.0797,0.0788,0.0755,0.0767,0.0821,0.0827,0.0833,0.0813,0.0817,0.0766,0.0766,0.0765,0.0765,0,0.075,0.0749,0.0748,0.0737,0.0725,0.0715,0.0702,0.0711,0.0705,0.0707,0.0772,0.078,0.0817,0.0839,0.0842,0.0908,0.0864,0.0835,0.0784,0.0848,0.0824,0.0826,0.0773,0.0771,0.077,0.0769,0,0,0.0759,0.0761,0.076,0.077,0.0749,0.0737,0.078,0.0808,0.0847,0.0841,0.0892,0.0967,0.0953,0.0978,0.0981,0.0986,0.1006,0.0926,0.0923,0.09,0.0967,0.0928,0.0926,0.0966,0.0967,0.0967,0.0934,0,0.0781,0.0794,0.0792,0.0812,0.0816,0.0815,0.085,0.0878,0.0904,0.0939,0.0984,0.1023,0.1012,0.1024,0.1034,0.1015,0.1016,0.1017,0.0917,0.0915,0.0864,0.0929,0.0961,0.0933,0.0936,0.0936,0.0937,0,0.0793,0.0802,0.0825,0.0855,0.0858,0.0868,0.0928,0.0955,0.1022,0.104,0.1094,0.11,0.1153,0.1098,0.1101,0.1089,0.1041,0.1012,0.1009,0.0946,0.088,0.0871,0.0937,0.0938,0.094,0.094,0.0939,0,0.0804,0.0828,0.0853,0.0856,0.0878,0.0911,0.0929,0.099,0.103,0.1099,0.1123,0.1171,0.1174,0.1144,0.1109,0.1088,0.1073,0.1032,0.0957,0.0952,0.0951,0.0945,0.1001,0.1019,0.1019,0.102,0.102,0,0.0822,0.0843,0.0859,0.0867,0.0903,0.0917,0.0975,0.1011,0.1065,0.1117,0.1161,0.1198,0.1176,0.1173,0.1125,0.1059,0.1084,0.0985,0.0951,0.0981,0.0978,0.0952,0.0928,0.1018,0.1019,0.1019,0.1019,0,0.0832,0.0842,0.0869,0.0898,0.0905,0.0929,0.0975,0.102,0.107,0.1134,0.1151,0.1207,0.1208,0.119,0.1139,0.1071,0.0996,0.0984,0.102,0.0991,0.0901,0.0879,0.0801,0.0795,0.089,0.0889,0.0888,0,0.0844,0.0851,0.0875,0.0883,0.0897,0.0931,0.0953,0.1007,0.1054,0.1144,0.1169,0.1205,0.124,0.1172,0.1087,0.1007,0.0976,0.0946,0.0925,0.0922,0.0872,0.0806,0.0803,0.0957,0.0957,0.0957,0.0956,0,0.0855,0.0857,0.0873,0.0881,0.0901,0.0942,0.0981,0.101,0.1081,0.1135,0.1197,0.1235,0.1206,0.1163,0.1062,0.1001,0.0931,0.0935,0.0937,0.0943,0.0871,0.084,0.0943,0.0955,0.0955,0.0955,0.0955,0.0955,0.0855,0.0862,0.0865,0.0879,0.0904,0.0944,0.0975,0.1024,0.1083,0.1169,0.1202,0.1265,0.1261,0.1142,0.1047,0.0935,0.088,0.0894,0.087,0.0804,0.08,0.089,0.0854,0.0854,0.0853,0.0853,0.0853,0,0.084,0.0846,0.0858,0.0879,0.0906,0.0927,0.0986,0.1022,0.108,0.1162,0.1222,0.1308,0.125,0.1184,0.1048,0.0924,0.0856,0.0869,0.0831,0.0834,0.094,0.095,0.0927,0.0927,0.0927,0.0927,0.0927,0.0927,0.083,0.0829,0.0837,0.0869,0.0889,0.0931,0.0964,0.102,0.1082,0.1186,0.1264,0.1349,0.1409,0.1164,0.1018,0.0952,0.0877,0.0788,0.0754,0.0891,0.0894,0.0896,0.0904,0.0872,0.0872,0.0678,0.0676,0.0675]}],[{"header":{"parameterUnit":"m.s-1","parameterCategory":2,"la1":30.2991,"la2":30.254,"lo1":-89.0895,"lo2":-89.0444,"dx":0.0017,"dy":0.0017,"nx":28,"ny":28,"refTime":"2023-01-27T09:00:00:Z","depth":"2","parameterNumber":2,"parameterNumberName":"U-component_of_CURRENTS"},"data":[0,0,0,0,0,0,0,0,0,0,0,0,0,0,0,0,0,0,0,0,0,0,0,0,0,0,0,0,0,0,0,0,0,0,0,0,0,0,0,0,0,0,0,0,0,0,0,0,0,0,0,0,0,0,0,0,0,0,0.0454,0.0455,0,0.0471,0.0471,0.0471,0.0493,0.0494,0.0495,0.0495,0.0472,0.0471,0.047,0,0,0,0,0,0,0,0,0,0,0,0,0,0.0362,0.0363,0.0454,0.0455,0.0455,0.0471,0.0471,0.0471,0.0493,0.0494,0.0495,0.0496,0.0473,0.0471,0.0469,0,0,0,0,0,0,0,0,0,0,0,0,0,0.0387,0.0364,0.0454,0.0473,0.0475,0.0472,0.0471,0.0471,0.0492,0.0494,0.0495,0.0496,0.0474,0.0471,0.0469,0.0428,0,0,0.0462,0.0461,0,0,0,0,0,0,0,0,0.0385,0.0389,0.0469,0.0472,0.0474,0.0487,0.0431,0.0456,0.0492,0.0479,0.0495,0.0497,0.0477,0.0474,0.0466,0.0427,0.0426,0.0462,0.0461,0.046,0.0459,0,0,0,0,0,0,0,0.0384,0.0388,0.0454,0.047,0.0473,0.0455,0.046,0.0435,0.0464,0.048,0.0484,0.0495,0.0477,0.0468,0.0466,0.0425,0.0462,0.046,0.0459,0.0458,0.0402,0.0402,0,0,0,0,0,0,0.0397,0.0387,0.0454,0.0456,0.044,0.0456,0.0461,0.0476,0.0465,0.0467,0.0494,0.0496,0.0471,0.0468,0.0465,0.0479,0.046,0.0458,0.0457,0.0403,0.0402,0.0402,0,0,0,0,0,0,0.0395,0.0403,0.0453,0.0426,0.0432,0.0457,0.0473,0.0476,0.0506,0.0477,0.0477,0.0526,0.0472,0.0468,0.0466,0.0476,0.0457,0.0455,0.0403,0.0403,0.0402,0.0466,0,0,0,0,0,0,0.0392,0.0402,0.0418,0.0428,0.0435,0.0471,0.0473,0.0476,0.0511,0.0515,0.0504,0.0501,0.0473,0.0469,0.0464,0.0473,0.0453,0.0403,0.0403,0.0402,0.0464,0.0468,0.0471,0,0,0,0,0,0.0389,0.0384,0.0418,0.0427,0.0456,0.0472,0.0474,0.049,0.0512,0.0523,0.0516,0.0504,0.0463,0.0468,0.0461,0.0469,0.0403,0.0403,0.0402,0.0462,0.0467,0.0471,0,0,0,0,0,0,0.0332,0.0388,0.0424,0.0435,0.0473,0.0479,0.0484,0.0512,0.0516,0.0529,0.0504,0.0499,0.0498,0.0473,0.0478,0.045,0.043,0.0428,0.0477,0.0482,0.0485,0.048,0.0451,0,0,0,0,0,0.0337,0.0357,0.0412,0.042,0.0447,0.0481,0.0493,0.0521,0.0527,0.0533,0.0535,0.0517,0.0483,0.0479,0.0451,0.044,0.0419,0.0438,0.0442,0.0445,0.0435,0.0397,0.0397,0.0401,0.0401,0.0401,0,0,0.031,0.0347,0.0356,0.0412,0.0439,0.0464,0.049,0.0526,0.054,0.0527,0.0545,0.0536,0.0483,0.0467,0.0464,0.0455,0.0442,0.0445,0.0448,0.0435,0.0397,0.0397,0.0396,0.0401,0.0401,0.0401,0,0,0.0261,0.0316,0.0326,0.0366,0.0437,0.0463,0.0489,0.0543,0.0564,0.0589,0.0569,0.0568,0.0547,0.0501,0.0471,0.0475,0.0463,0.048,0.0495,0.046,0.046,0.0459,0.0476,0.0476,0.0482,0.0482,0.0482,0,0.0238,0.0265,0.0326,0.0354,0.0385,0.047,0.0493,0.0514,0.0561,0.0568,0.0607,0.0567,0.0548,0.0482,0.0495,0.0482,0.0483,0.0488,0.0466,0.0464,0.0462,0.048,0.0479,0.0485,0.0484,0.0484,0.0484,0,0.0204,0.0241,0.0248,0.0321,0.0356,0.0393,0.0457,0.0502,0.0562,0.0582,0.0587,0.0572,0.0549,0.0545,0.0527,0.0494,0.051,0.0478,0.046,0.0466,0.0484,0.0482,0.0489,0.0488,0.0487,0.0486,0,0,0.0141,0.0212,0.0225,0.0263,0.0358,0.0385,0.0418,0.0463,0.0486,0.0542,0.0549,0.0522,0.0556,0.0523,0.051,0.0488,0.0506,0.0496,0.0493,0.0524,0.0479,0.0588,0.0597,0.0481,0.048,0.0479,0.0514,0,0.0117,0.0147,0.0192,0.0235,0.0272,0.0354,0.0371,0.0422,0.0478,0.051,0.0509,0.0516,0.0531,0.0549,0.0529,0.0507,0.0497,0.0502,0.0458,0.0457,0.056,0.0595,0.0377,0.0398,0.0512,0.0512,0.0511,0,0.0102,0.0128,0.0156,0.0223,0.0248,0.028,0.0356,0.0385,0.0429,0.0471,0.049,0.0513,0.0507,0.0523,0.0495,0.0508,0.0503,0.0486,0.0486,0.0557,0.0561,0.0399,0.039,0.0508,0.0508,0.0508,0.0508,0,0.0066,0.0117,0.014,0.0168,0.0242,0.0271,0.0319,0.0377,0.0408,0.0461,0.0499,0.0494,0.0525,0.0496,0.0532,0.0512,0.0511,0.0464,0.0548,0.0557,0.0344,0.0337,0.0422,0.0422,0.0422,0.0422,0.0422,0,0.005,0.0077,0.0131,0.0153,0.0192,0.0255,0.0304,0.0352,0.0405,0.0442,0.049,0.0521,0.0523,0.0547,0.0536,0.0582,0.0521,0.0565,0.0569,0.0369,0.0365,0.0419,0.0419,0.0423,0.0423,0.0423,0.0422,0,0.0031,0.0061,0.0098,0.016,0.0187,0.0227,0.0313,0.0344,0.0404,0.0459,0.0485,0.055,0.0616,0.0632,0.0614,0.0618,0.0617,0.0635,0.0454,0.0438,0.068,0.0682,0.0715,0.0719,0.0723,0.0726,0.0728,0,0.0025,0.0039,0.0104,0.0137,0.0177,0.0238,0.0284,0.0348,0.0385,0.0478,0.0499,0.0596,0.0672,0.0737,0.0741,0.0767,0.0736,0.0583,0.0496,0.0708,0.0707,0.0703,0.0701,0.0235,0.0233,0.0232,0.023,0,0.0016,0.0044,0.0075,0.0137,0.0192,0.0241,0.031,0.0328,0.041,0.0462,0.0548,0.0616,0.072,0.069,0.0771,0.0719,0.057,0.0564,0.0765,0.0244,0.027,0.0267,0.0275,0.0217,0.0218,0.0219,0.022,0.0221,0.002,0.0041,0.0089,0.0156,0.0209,0.0263,0.0303,0.0353,0.0413,0.049,0.0549,0.0591,0.0535,0.0607,0.0626,0.0616,0.0647,0.0478,0.0473,0.0472,0.0459,0.0495,0.0483,0.0486,0.0488,0.0491,0.0492,0,0.0036,0.007,0.0112,0.0186,0.024,0.0284,0.0338,0.0357,0.0426,0.0454,0.0534,0.04,0.0383,0.039,0.0379,0.0423,0.0323,0.0355,0.0145,0.0154,0.0163,0.0129,0.0068,0.0069,0.007,0.0071,0,0,0.0049,0.0092,0.0115,0.0211,0.0276,0.0352,0.0392,0.0404,0.0402,0.039,0.0358,0.0348,0.0307,0.0186,0.0153,0.0141,0.0157,0.0108,0.0406,0.016,0.0172,0.0154,0.0105,0,0,0,0,0]},{"header":{"parameterUnit":"m.s-1","parameterCategory":2,"la1":30.2991,"la2":30.254,"lo1":-89.0895,"lo2":-89.0444,"dx":0.0017,"dy":0.0017,"nx":28,"ny":28,"refTime":"2023-01-27T09:00:00:Z","depth":"2","parameterNumber":3,"parameterNumberName":"V-component_of_CURRENTS"},"data":[0,0,0,0,0,0,0,0,0,0,0,0,0,0,0,0,0,0,0,0,0,0,0,0,0,0,0,0,0,0,0,0,0,0,0,0,0,0,0,0,0,0,0,0,0,0,0,0,0,0,0,0,0,0,0,0,0,0,-0.0394,-0.0394,0,-0.0379,-0.0379,-0.0379,-0.0365,-0.0365,-0.0365,-0.0365,-0.0428,-0.043,-0.0431,0,0,0,0,0,0,0,0,0,0,0,0,0,-0.0299,-0.0301,-0.0394,-0.0394,-0.0394,-0.0379,-0.0379,-0.0379,-0.0365,-0.0365,-0.0365,-0.0365,-0.0427,-0.0429,-0.0431,0,0,0,0,0,0,0,0,0,0,0,0,0,-0.0317,-0.0302,-0.0394,-0.0386,-0.0385,-0.0379,-0.0379,-0.0379,-0.0365,-0.0365,-0.0365,-0.0364,-0.0427,-0.0429,-0.0432,-0.045,0,0,-0.044,-0.0441,0,0,0,0,0,0,0,0,-0.0316,-0.032,-0.0387,-0.0387,-0.0386,-0.0375,-0.0368,-0.0407,-0.0365,-0.0372,-0.0365,-0.0364,-0.0418,-0.0421,-0.0416,-0.0453,-0.0456,-0.044,-0.0442,-0.0443,-0.0443,0,0,0,0,0,0,0,-0.0315,-0.032,-0.0387,-0.0387,-0.0386,-0.0345,-0.0348,-0.0375,-0.0396,-0.0371,-0.037,-0.037,-0.0418,-0.0414,-0.0418,-0.0457,-0.044,-0.0442,-0.0444,-0.0445,-0.0568,-0.057,0,0,0,0,0,0,-0.0325,-0.032,-0.0388,-0.0387,-0.0351,-0.0347,-0.0351,-0.0378,-0.0394,-0.0396,-0.037,-0.037,-0.0409,-0.0415,-0.042,-0.0486,-0.0443,-0.0445,-0.0447,-0.0566,-0.0568,-0.057,0,0,0,0,0,0,-0.0324,-0.0333,-0.0388,-0.0352,-0.0356,-0.035,-0.0379,-0.0377,-0.0388,-0.0393,-0.0396,-0.0385,-0.0409,-0.0417,-0.0457,-0.0487,-0.0446,-0.0449,-0.0564,-0.0567,-0.0569,-0.0592,0,0,0,0,0,0,-0.0322,-0.0333,-0.0351,-0.0354,-0.0359,-0.0401,-0.0379,-0.0377,-0.0388,-0.0387,-0.0407,-0.0411,-0.041,-0.0453,-0.046,-0.049,-0.0451,-0.0562,-0.0566,-0.0569,-0.0589,-0.0595,-0.06,0,0,0,0,0,-0.0319,-0.0342,-0.0353,-0.0361,-0.0387,-0.0402,-0.0401,-0.0393,-0.0389,-0.0401,-0.0412,-0.0411,-0.0478,-0.0456,-0.0464,-0.0496,-0.0561,-0.0565,-0.0568,-0.0586,-0.0594,-0.06,0,0,0,0,0,0,-0.0296,-0.0343,-0.0355,-0.0389,-0.0404,-0.04,-0.0406,-0.0406,-0.0422,-0.0426,-0.0429,-0.0435,-0.0481,-0.0491,-0.0467,-0.0543,-0.0522,-0.0527,-0.0533,-0.054,-0.0545,-0.0525,-0.0453,0,0,0,0,0,-0.0306,-0.0343,-0.0372,-0.0395,-0.0412,-0.0415,-0.0419,-0.0421,-0.0433,-0.0439,-0.0453,-0.0475,-0.05,-0.0521,-0.0542,-0.0586,-0.0569,-0.0615,-0.062,-0.0625,-0.0615,-0.0614,-0.0617,-0.0583,-0.0583,-0.0583,0,0,-0.0298,-0.033,-0.0348,-0.0393,-0.0405,-0.0428,-0.0418,-0.0437,-0.0451,-0.0447,-0.0477,-0.0495,-0.0516,-0.0557,-0.058,-0.0571,-0.0627,-0.063,-0.0633,-0.062,-0.0618,-0.0621,-0.0624,-0.0585,-0.0585,-0.0584,0,0,-0.0299,-0.0342,-0.0374,-0.0399,-0.0433,-0.044,-0.0455,-0.0474,-0.0483,-0.0517,-0.0516,-0.0545,-0.0592,-0.0601,-0.0615,-0.0668,-0.0653,-0.0693,-0.0707,-0.0707,-0.0709,-0.071,-0.0691,-0.069,-0.0699,-0.0699,-0.0699,0,-0.0291,-0.034,-0.0378,-0.0415,-0.0429,-0.0453,-0.0477,-0.0494,-0.0519,-0.0524,-0.0535,-0.0582,-0.0607,-0.0637,-0.0661,-0.0677,-0.067,-0.0677,-0.0711,-0.0712,-0.0713,-0.0693,-0.0692,-0.0701,-0.0701,-0.0701,-0.07,0,-0.0316,-0.0356,-0.0376,-0.0438,-0.0459,-0.0485,-0.0519,-0.054,-0.0557,-0.0565,-0.0602,-0.0627,-0.0647,-0.0677,-0.0689,-0.0719,-0.0709,-0.0711,-0.0685,-0.0717,-0.0695,-0.0693,-0.0703,-0.0703,-0.0702,-0.0702,0,0,-0.031,-0.038,-0.0393,-0.0412,-0.0475,-0.0489,-0.0527,-0.0554,-0.0557,-0.0602,-0.0601,-0.0667,-0.0671,-0.0687,-0.0708,-0.0723,-0.0735,-0.0731,-0.073,-0.0695,-0.0723,-0.0657,-0.0649,-0.0747,-0.0747,-0.0747,-0.0703,0,-0.0321,-0.0374,-0.0411,-0.045,-0.0478,-0.0511,-0.0532,-0.0558,-0.0578,-0.0587,-0.0622,-0.0637,-0.0679,-0.0687,-0.0714,-0.0722,-0.0733,-0.0745,-0.0712,-0.071,-0.0634,-0.0646,-0.0614,-0.0568,-0.0701,-0.0701,-0.0701,0,-0.035,-0.0376,-0.0416,-0.0447,-0.0462,-0.0485,-0.0506,-0.0528,-0.0552,-0.0563,-0.0589,-0.0606,-0.064,-0.0666,-0.0697,-0.0705,-0.072,-0.0728,-0.0727,-0.0651,-0.0641,-0.056,-0.0559,-0.0698,-0.0698,-0.0699,-0.0699,0,-0.0329,-0.0384,-0.0406,-0.0426,-0.0467,-0.0479,-0.0495,-0.0521,-0.0521,-0.0542,-0.0531,-0.0576,-0.0579,-0.0618,-0.0653,-0.0676,-0.0665,-0.0691,-0.064,-0.0635,-0.0591,-0.0582,-0.0703,-0.0703,-0.0703,-0.0704,-0.0704,0,-0.0337,-0.0359,-0.0397,-0.0412,-0.042,-0.0457,-0.0459,-0.0477,-0.0483,-0.0466,-0.0514,-0.0493,-0.057,-0.0576,-0.0624,-0.0614,-0.064,-0.063,-0.0618,-0.0599,-0.0591,-0.0694,-0.0693,-0.0702,-0.0702,-0.0703,-0.0703,0,-0.0326,-0.0357,-0.0378,-0.0409,-0.0418,-0.0424,-0.0435,-0.0426,-0.0437,-0.0412,-0.0413,-0.0425,-0.0424,-0.048,-0.0516,-0.0547,-0.056,-0.0552,-0.0512,-0.0496,-0.0539,-0.0541,-0.0488,-0.0485,-0.0483,-0.0481,-0.0479,0,-0.0325,-0.0339,-0.0368,-0.0372,-0.039,-0.04,-0.0398,-0.0409,-0.039,-0.0358,-0.0332,-0.0319,-0.0275,-0.029,-0.0338,-0.0369,-0.0466,-0.0392,-0.0431,-0.0522,-0.0517,-0.0522,-0.0527,-0.0388,-0.0386,-0.0384,-0.0383,0,-0.0312,-0.0329,-0.0339,-0.0349,-0.0353,-0.0345,-0.034,-0.0312,-0.0304,-0.0255,-0.0179,-0.013,-0.0113,-0.0114,-0.0164,-0.0203,-0.0387,-0.0352,-0.0457,-0.044,-0.0423,-0.0419,-0.0428,-0.0366,-0.0368,-0.0369,-0.037,-0.0371,-0.0297,-0.0299,-0.0316,-0.0322,-0.032,-0.0292,-0.0265,-0.0222,-0.0157,-0.0044,-0.0018,0.006,-0.0001,-0.001,-0.0061,-0.0161,-0.0185,-0.0274,-0.0282,-0.0292,-0.0281,-0.026,-0.017,-0.017,-0.0171,-0.0171,-0.0171,0,-0.027,-0.0283,-0.0286,-0.0284,-0.0264,-0.0281,-0.0226,-0.0158,-0.0049,0.0075,0.0199,0.0141,0.017,0.0051,-0.0034,-0.0071,-0.0107,-0.014,-0.0201,-0.0215,-0.0228,-0.0218,-0.0088,-0.0088,-0.0088,-0.0088,0,0,-0.0254,-0.0254,-0.026,-0.0233,-0.0235,-0.0191,-0.0154,-0.0027,0.0073,0.0206,0.0243,0.0379,0.0196,0.0126,0.0057,-0.0014,-0.0097,-0.0023,-0.0079,-0.015,-0.0162,-0.029,-0.0286,0,0,0,0,0]}],[{"header":{"parameterUnit":"m.s-1","parameterCategory":2,"la1":30.2991,"la2":30.254,"lo1":-89.0895,"lo2":-89.0444,"dx":0.0017,"dy":0.0017,"nx":28,"ny":28,"refTime":"2023-01-27T09:00:00:Z","depth":"4","parameterNumber":2,"parameterNumberName":"U-component_of_CURRENTS"},"data":[0,0,0,0,0,0,0,0,0,0,0,0,0,0,0,0,0,0,0,0,0,0,0,0,0,0,0,0,0,0,0,0,0,0,0,0,0,0,0,0,0,0,0,0,0,0,0,0,0,0,0,0,0,0,0,0,0,0,-0.0493,-0.0493,0,-0.0474,-0.0474,-0.0473,-0.0476,-0.0477,-0.0478,-0.0478,-0.0491,-0.049,-0.049,0,0,0,0,0,0,0,0,0,0,0,0,0,-0.0423,-0.0425,-0.0493,-0.0493,-0.0493,-0.0474,-0.0474,-0.0473,-0.0476,-0.0477,-0.0478,-0.0478,-0.0491,-0.049,-0.049,0,0,0,0,0,0,0,0,0,0,0,0,0,-0.0431,-0.0425,-0.0493,-0.0495,-0.0495,-0.0474,-0.0474,-0.0473,-0.0476,-0.0477,-0.0478,-0.0479,-0.0491,-0.049,-0.049,-0.0471,0,0,-0.0489,-0.0489,0,0,0,0,0,0,0,0,-0.0431,-0.0433,-0.0494,-0.0495,-0.0495,-0.0481,-0.0453,-0.0475,-0.0476,-0.048,-0.0478,-0.0479,-0.0491,-0.0491,-0.0481,-0.0471,-0.0472,-0.0489,-0.0489,-0.0489,-0.0489,0,0,0,0,0,0,0,-0.043,-0.0434,-0.0483,-0.0494,-0.0495,-0.0459,-0.0462,-0.0457,-0.048,-0.048,-0.0481,-0.0483,-0.0491,-0.0481,-0.0482,-0.0472,-0.0489,-0.0489,-0.0489,-0.0489,-0.0519,-0.052,0,0,0,0,0,0,-0.0443,-0.0434,-0.0484,-0.0483,-0.0467,-0.046,-0.0463,-0.0482,-0.0479,-0.048,-0.0482,-0.0483,-0.0481,-0.0482,-0.0482,-0.0512,-0.0489,-0.0488,-0.0488,-0.0518,-0.0519,-0.052,0,0,0,0,0,0,-0.0442,-0.0449,-0.0484,-0.0458,-0.0461,-0.0461,-0.0482,-0.0481,-0.0493,-0.0481,-0.0482,-0.0497,-0.0482,-0.0483,-0.0506,-0.0511,-0.0488,-0.0488,-0.0516,-0.0518,-0.0519,-0.0539,0,0,0,0,0,0,-0.0441,-0.0449,-0.0455,-0.046,-0.0463,-0.049,-0.0482,-0.048,-0.0493,-0.0494,-0.0494,-0.0494,-0.0483,-0.0506,-0.0505,-0.051,-0.0488,-0.0515,-0.0517,-0.0519,-0.0537,-0.0541,-0.0544,0,0,0,0,0,-0.0438,-0.045,-0.0456,-0.0461,-0.0477,-0.0491,-0.0489,-0.0488,-0.0493,-0.0501,-0.0509,-0.0496,-0.0517,-0.0507,-0.0505,-0.051,-0.0514,-0.0517,-0.0519,-0.0535,-0.054,-0.0544,0,0,0,0,0,0,-0.042,-0.0452,-0.0459,-0.0479,-0.0492,-0.0493,-0.049,-0.05,-0.0509,-0.0515,-0.0508,-0.0509,-0.0532,-0.0524,-0.0513,-0.0527,-0.0513,-0.0515,-0.0526,-0.0531,-0.0534,-0.054,-0.0488,0,0,0,0,0,-0.042,-0.0438,-0.0463,-0.0476,-0.0485,-0.0492,-0.0494,-0.0506,-0.0517,-0.0522,-0.0531,-0.0535,-0.0534,-0.0537,-0.0541,-0.0546,-0.0529,-0.055,-0.0554,-0.0556,-0.0562,-0.0554,-0.0556,-0.0527,-0.0527,-0.0527,0,0,-0.0415,-0.0433,-0.0443,-0.0473,-0.0477,-0.0495,-0.0495,-0.0513,-0.0538,-0.0522,-0.0558,-0.0554,-0.0542,-0.0552,-0.056,-0.0548,-0.0553,-0.0559,-0.0562,-0.0566,-0.0556,-0.0559,-0.0561,-0.0529,-0.0528,-0.0528,0,0,-0.0409,-0.0434,-0.0446,-0.0463,-0.0486,-0.0498,-0.0514,-0.0541,-0.0562,-0.0592,-0.0587,-0.0598,-0.06,-0.0595,-0.0587,-0.0616,-0.0578,-0.061,-0.0623,-0.0615,-0.0617,-0.0618,-0.0582,-0.058,-0.0604,-0.0605,-0.0605,0,-0.0401,-0.0425,-0.0448,-0.0464,-0.0479,-0.0509,-0.0529,-0.0553,-0.059,-0.0611,-0.0614,-0.0621,-0.0621,-0.0616,-0.0625,-0.0624,-0.0597,-0.0603,-0.0618,-0.0619,-0.062,-0.0583,-0.058,-0.0606,-0.0606,-0.0605,-0.0605,0,-0.0406,-0.0426,-0.0434,-0.0471,-0.0491,-0.0514,-0.056,-0.0604,-0.0635,-0.0649,-0.0677,-0.067,-0.0666,-0.0668,-0.0652,-0.0655,-0.0626,-0.0626,-0.0603,-0.0624,-0.0583,-0.058,-0.0607,-0.0607,-0.0607,-0.0606,0,0,-0.0398,-0.0431,-0.0438,-0.0452,-0.0502,-0.0522,-0.0583,-0.0633,-0.067,-0.0698,-0.0719,-0.0724,-0.0708,-0.0701,-0.0679,-0.0676,-0.066,-0.0651,-0.065,-0.0606,-0.061,-0.0565,-0.0557,-0.0653,-0.0653,-0.0653,-0.057,0,-0.0398,-0.0419,-0.0445,-0.0478,-0.0496,-0.0553,-0.0608,-0.0661,-0.0697,-0.0729,-0.0729,-0.0725,-0.072,-0.0699,-0.07,-0.0673,-0.0656,-0.0681,-0.0603,-0.0601,-0.0552,-0.0555,-0.0654,-0.0567,-0.0567,-0.0566,-0.0566,0,-0.0405,-0.0417,-0.0441,-0.0493,-0.0509,-0.0544,-0.063,-0.0681,-0.0739,-0.0752,-0.0749,-0.0733,-0.0719,-0.0711,-0.0676,-0.0684,-0.0649,-0.0632,-0.0628,-0.058,-0.0552,-0.0547,-0.056,-0.0561,-0.0561,-0.0562,-0.0562,0,-0.0391,-0.0425,-0.044,-0.0455,-0.0518,-0.0562,-0.0615,-0.0692,-0.073,-0.0748,-0.0739,-0.0729,-0.0698,-0.068,-0.0641,-0.0647,-0.06,-0.0602,-0.0526,-0.0521,-0.0576,-0.0575,-0.0577,-0.0577,-0.0577,-0.0577,-0.0577,0,-0.039,-0.0408,-0.0436,-0.0449,-0.0495,-0.0553,-0.0618,-0.0669,-0.0718,-0.0732,-0.073,-0.0707,-0.0689,-0.0657,-0.0634,-0.0565,-0.0587,-0.0525,-0.0502,-0.0584,-0.0585,-0.0572,-0.0573,-0.0574,-0.0575,-0.0575,-0.0576,0,-0.038,-0.0395,-0.0414,-0.0467,-0.0489,-0.0529,-0.0614,-0.0651,-0.0695,-0.0706,-0.0693,-0.0677,-0.0625,-0.0604,-0.0559,-0.0533,-0.049,-0.0458,-0.0526,-0.0509,-0.0413,-0.0416,-0.0358,-0.0356,-0.0354,-0.0352,-0.0351,0,-0.0375,-0.0381,-0.0415,-0.0425,-0.045,-0.0514,-0.0561,-0.0633,-0.0647,-0.068,-0.0657,-0.0617,-0.0597,-0.0487,-0.0486,-0.0421,-0.0417,-0.0382,-0.0423,-0.041,-0.0393,-0.0399,-0.0404,-0.0348,-0.0348,-0.0347,-0.0347,0,-0.0366,-0.0376,-0.0387,-0.0403,-0.0435,-0.0467,-0.0523,-0.0519,-0.0587,-0.0627,-0.0583,-0.0548,-0.0487,-0.0442,-0.0387,-0.0356,-0.0407,-0.0363,-0.0367,-0.0405,-0.0397,-0.0384,-0.0391,-0.034,-0.0341,-0.0342,-0.0342,0,-0.0358,-0.0357,-0.0365,-0.0379,-0.0404,-0.0398,-0.0438,-0.0448,-0.0476,-0.0508,-0.0496,-0.0472,-0.0481,-0.0406,-0.037,-0.0323,-0.0314,-0.03,-0.0307,-0.0314,-0.0341,-0.0328,-0.0225,0,0,0,0,0,-0.0348,-0.0338,-0.0342,-0.034,-0.0355,-0.0369,-0.04,-0.0433,-0.0487,-0.0437,-0.0467,-0.0416,-0.0358,-0.0348,-0.0283,-0.0333,-0.0305,-0.0257,-0.0292,-0.0305,-0.0313,-0.0351,0,0,0,0,0,0,-0.0339,-0.0338,-0.0329,-0.0302,-0.0291,-0.0303,-0.0313,-0.0343,-0.0318,-0.0371,-0.0332,-0.0389,-0.0325,-0.0384,-0.0277,-0.0272,-0.0282,-0.026,-0.0258,-0.0301,-0.0308,-0.0314,-0.0355,0,0,0,0,0]},{"header":{"parameterUnit":"m.s-1","parameterCategory":2,"la1":30.2991,"la2":30.254,"lo1":-89.0895,"lo2":-89.0444,"dx":0.0017,"dy":0.0017,"nx":28,"ny":28,"refTime":"2023-01-27T09:00:00:Z","depth":"4","parameterNumber":3,"parameterNumberName":"V-component_of_CURRENTS"},"data":[0,0,0,0,0,0,0,0,0,0,0,0,0,0,0,0,0,0,0,0,0,0,0,0,0,0,0,0,0,0,0,0,0,0,0,0,0,0,0,0,0,0,0,0,0,0,0,0,0,0,0,0,0,0,0,0,0,0,0.003,0.003,0,0.0043,0.0043,0.0043,0.0046,0.0046,0.0045,0.0045,0.0012,0.0012,0.0011,0,0,0,0,0,0,0,0,0,0,0,0,0,0.0094,0.0092,0.003,0.003,0.003,0.0043,0.0043,0.0043,0.0046,0.0046,0.0045,0.0045,0.0013,0.0012,0.0011,0,0,0,0,0,0,0,0,0,0,0,0,0,0.0084,0.0092,0.003,0.0032,0.0032,0.0042,0.0043,0.0043,0.0046,0.0046,0.0045,0.0045,0.0013,0.0012,0.0011,0.0012,0,0,0.0008,0.0008,0,0,0,0,0,0,0,0,0.0084,0.0081,0.0032,0.0032,0.0032,0.0041,0.0053,0.003,0.0046,0.0042,0.0045,0.0045,0.0017,0.0016,0.0022,0.001,0.0009,0.0008,0.0007,0.0007,0.0007,0,0,0,0,0,0,0,0.0085,0.0081,0.0037,0.0032,0.0032,0.0061,0.0059,0.005,0.0032,0.0043,0.0042,0.0042,0.0017,0.0023,0.0021,0.0008,0.0008,0.0007,0.0006,0.0006,-0.0041,-0.0041,0,0,0,0,0,0,0.0076,0.0081,0.0036,0.0037,0.0056,0.006,0.0057,0.004,0.0033,0.0031,0.0042,0.0042,0.0025,0.0022,0.0019,-0.0023,0.0007,0.0006,0.0005,-0.004,-0.0041,-0.0041,0,0,0,0,0,0,0.0077,0.0071,0.0036,0.006,0.0057,0.0058,0.0039,0.004,0.0038,0.0032,0.003,0.0037,0.0024,0.0021,-0.0001,-0.0023,0.0005,0.0005,-0.0039,-0.004,-0.0041,-0.0081,0,0,0,0,0,0,0.0078,0.0071,0.0067,0.0058,0.0055,0.0038,0.0039,0.0041,0.0038,0.0037,0.0028,0.0025,0.0024,0.0,-0.0002,-0.0024,0.0004,-0.0038,-0.004,-0.0041,-0.0079,-0.0083,-0.0087,0,0,0,0,0,0.008,0.0075,0.0066,0.0062,0.0045,0.0038,0.0039,0.0041,0.0037,0.0038,0.0024,0.0025,-0.0009,-0.0001,-0.0004,-0.0026,-0.0038,-0.0039,-0.0041,-0.0077,-0.0082,-0.0087,0,0,0,0,0,0,0.0108,0.0074,0.0065,0.0051,0.0042,0.0037,0.0045,0.0037,0.0029,0.0025,0.0017,0.0013,-0.0015,-0.0012,-0.0003,-0.0042,-0.0023,-0.0025,-0.005,-0.0055,-0.0059,-0.0054,0.0003,0,0,0,0,0,0.0109,0.0094,0.0068,0.0062,0.0054,0.0047,0.0047,0.0039,0.0027,0.0024,0.0008,-0.0005,-0.002,-0.0031,-0.0041,-0.0062,-0.0043,-0.0077,-0.0082,-0.0085,-0.0083,-0.0075,-0.0078,-0.0046,-0.0046,-0.0046,0,0,0.012,0.0101,0.0094,0.0068,0.0064,0.0054,0.0047,0.0039,0.0028,0.002,-0.0001,-0.0021,-0.0028,-0.0054,-0.0066,-0.0057,-0.0083,-0.0087,-0.009,-0.0086,-0.0076,-0.0079,-0.0082,-0.0047,-0.0047,-0.0047,0,0,0.0135,0.0114,0.0104,0.0092,0.0073,0.0065,0.0057,0.0032,0.002,-0.001,-0.0018,-0.0049,-0.0076,-0.0085,-0.0092,-0.0122,-0.0105,-0.0131,-0.0151,-0.0144,-0.0146,-0.0148,-0.0123,-0.0122,-0.0134,-0.0134,-0.0134,0,0.0148,0.0126,0.0106,0.0093,0.0086,0.0065,0.0053,0.0042,0.0011,-0.0013,-0.0023,-0.0079,-0.0088,-0.0114,-0.013,-0.0131,-0.0119,-0.0134,-0.0149,-0.015,-0.0151,-0.0125,-0.0124,-0.0136,-0.0136,-0.0136,-0.0136,0,0.0148,0.0135,0.0131,0.0102,0.0095,0.0082,0.0054,0.0029,-0.0002,-0.0029,-0.008,-0.0101,-0.0137,-0.0148,-0.0152,-0.0172,-0.0157,-0.0154,-0.0136,-0.0157,-0.0128,-0.0126,-0.0139,-0.0138,-0.0138,-0.0137,0,0,0.0144,0.0132,0.0126,0.0116,0.0092,0.0079,0.0057,0.0018,-0.0017,-0.0058,-0.0104,-0.014,-0.0172,-0.0181,-0.0193,-0.0191,-0.0192,-0.0183,-0.0182,-0.0157,-0.0165,-0.0169,-0.0166,-0.0196,-0.0196,-0.0196,-0.0139,0,0.0142,0.0129,0.0121,0.0107,0.0092,0.0068,0.0046,0.0007,-0.0038,-0.0089,-0.0124,-0.017,-0.0176,-0.0209,-0.0209,-0.02,-0.0189,-0.0206,-0.0149,-0.0147,-0.0147,-0.0166,-0.0196,-0.0137,-0.0137,-0.0136,-0.0136,0,0.0122,0.0118,0.0108,0.0088,0.0077,0.0068,0.0012,-0.0017,-0.0083,-0.0125,-0.0178,-0.0206,-0.0226,-0.0226,-0.0208,-0.0221,-0.0197,-0.0179,-0.0177,-0.0165,-0.0148,-0.0113,-0.0132,-0.0132,-0.0133,-0.0133,-0.0133,0,0.0105,0.0097,0.0092,0.0085,0.0064,0.0047,0.0022,-0.0039,-0.0081,-0.0154,-0.0189,-0.0223,-0.0238,-0.0223,-0.0194,-0.0207,-0.0153,-0.0163,-0.0134,-0.0133,-0.0127,-0.0125,-0.0137,-0.0137,-0.0137,-0.0137,-0.0137,0,0.0084,0.0074,0.0084,0.0074,0.0049,0.0031,-0.0023,-0.0061,-0.0122,-0.0168,-0.0211,-0.0236,-0.0238,-0.0214,-0.0192,-0.0152,-0.0147,-0.0137,-0.0125,-0.0144,-0.0145,-0.0124,-0.0124,-0.0135,-0.0135,-0.0136,-0.0136,0,0.0054,0.0064,0.0051,0.0044,0.0038,0.0009,-0.004,-0.0088,-0.0135,-0.0189,-0.0209,-0.0238,-0.0218,-0.0193,-0.0154,-0.014,-0.0105,-0.0084,-0.0088,-0.0076,-0.0091,-0.0093,-0.0068,-0.0068,-0.0068,-0.0067,-0.0067,0,0.0037,0.0032,0.0029,0.0018,0.0016,-0.0024,-0.0059,-0.0105,-0.0145,-0.0184,-0.02,-0.0198,-0.0209,-0.015,-0.0129,-0.008,-0.0074,-0.005,-0.0099,-0.0096,-0.0086,-0.0089,-0.0091,-0.0067,-0.0067,-0.0067,-0.0067,0,0.0005,0.0008,0.0002,-0.0015,-0.0036,-0.0072,-0.011,-0.0132,-0.0179,-0.0194,-0.0205,-0.0202,-0.0172,-0.0154,-0.0104,-0.0071,-0.0075,-0.0049,-0.005,-0.0095,-0.0095,-0.0086,-0.0088,-0.0066,-0.0066,-0.0066,-0.0066,0,-0.0022,-0.0032,-0.0035,-0.0052,-0.0078,-0.0112,-0.0133,-0.0158,-0.0192,-0.0209,-0.02,-0.0187,-0.0173,-0.0146,-0.0101,-0.0074,-0.0086,-0.0087,-0.0087,-0.0087,-0.0121,-0.0125,-0.0096,0,0,0,0,0,-0.0049,-0.0058,-0.0074,-0.0094,-0.0117,-0.013,-0.0162,-0.0179,-0.0188,-0.0196,-0.0203,-0.0179,-0.0151,-0.0142,-0.0117,-0.0108,-0.0081,-0.008,-0.0082,-0.0063,-0.0064,-0.0103,0,0,0,0,0,0,-0.0069,-0.0083,-0.0081,-0.0119,-0.0136,-0.0171,-0.0191,-0.0198,-0.0204,-0.02,-0.0185,-0.0171,-0.0142,-0.0156,-0.0113,-0.0107,-0.0107,-0.0062,-0.0061,-0.0063,-0.0063,-0.0064,-0.0104,0,0,0,0,0]}]]